EW5167 Independent Hill VA US current weather conditions

sailwx.info

Wind from 114

Air temperature -2.2° C
Dewpoint -5.0° C

Last reported at 2019-Dec-13 02:09 UTC.
Time now 2019-Dec-13 03:00 UTC

Location: N 38°41' W 077°26'.
View on Google Maps.

See reports from other nearby stations

  
Tides and Currents Weather Stations Pressure Air Temp Water Temp Dewpoint Dewpoint Depression Visibility Wind Speed Wind Dir Waves Ship Positions
date/time (UTC)wind fromknots sea level pressurealtimeterstation pressurevisibilityair tempwater tempwave heightnotes
2019-Dec-13 02:09 114 -2.2
2019-Dec-13 01:58 114 -2.2
2019-Dec-13 01:48 114 -2.2
2019-Dec-13 01:36 114 -2.2
2019-Dec-13 01:25 114 -1.7
2019-Dec-13 01:14 114 -1.7
2019-Dec-13 01:03 114 -1.7
2019-Dec-13 00:52 114 -2.2
2019-Dec-13 00:42 114 -1.7
2019-Dec-13 00:30 114 -1.7
2019-Dec-13 00:20 114 -1.7
2019-Dec-13 00:09 114 -1.7
2019-Dec-12 23:58 114 -1.7
2019-Dec-12 23:46 114 -1.7
2019-Dec-12 23:35 114 -1.1
2019-Dec-12 23:25 114 -1.1
2019-Dec-12 23:13 114 -1.1
2019-Dec-12 23:03 114 -1.1
2019-Dec-12 22:52 114 -0.6
2019-Dec-12 22:40 114 -0.6
2019-Dec-12 22:30 114 -0.0
2019-Dec-12 22:19 114 -0.0
2019-Dec-12 22:08 114 0.6
2019-Dec-12 21:57 114 1.1
2019-Dec-12 21:45 114 1.1
2019-Dec-12 21:34 050 1.7
2019-Dec-12 21:23 050 2.2
2019-Dec-12 21:12 116 0 gusting 5 2.8
2019-Dec-12 21:01 097 0 gusting 2 2.8
2019-Dec-12 20:49 078 0 gusting 5 2.8
2019-Dec-12 20:38 122 0 gusting 3 2.8
2019-Dec-12 20:26 060 0 gusting 3 3.3
2019-Dec-12 20:15 203 0 gusting 3 3.3
2019-Dec-12 20:05 070 0 gusting 6 3.3
2019-Dec-12 19:54 089 0 gusting 6 3.3
2019-Dec-12 19:42 062 0 gusting 7 2.8
2019-Dec-12 19:32 005 1 gusting 7 2.8
2019-Dec-12 19:21 190 1 gusting 7 2.8
2019-Dec-12 19:10 105 1 gusting 7 2.8
2019-Dec-12 18:58 120 1 gusting 6 3.3
2019-Dec-12 18:47 148 1 gusting 6 2.8
2019-Dec-12 18:36 154 1 gusting 3 2.8
2019-Dec-12 18:25 336 0 gusting 3 2.8
2019-Dec-12 18:13 099 0 gusting 3 2.8
2019-Dec-12 18:03 128 1 gusting 3 2.2
2019-Dec-12 17:52 144 1 gusting 3 2.2
2019-Dec-12 17:41 058 1 gusting 3 2.2
2019-Dec-12 17:30 043 1 gusting 3 2.2
2019-Dec-12 17:19 065 1 gusting 3 1.7
2019-Dec-12 17:08 216 0 gusting 3 1.7
2019-Dec-12 16:57 172 1 gusting 3 1.7
2019-Dec-12 16:46 221 0 gusting 2 1.1
2019-Dec-12 16:35 082 0 gusting 2 1.1
2019-Dec-12 16:23 149 0 gusting 3 1.1
2019-Dec-12 16:13 039 0 gusting 3 0.6
2019-Dec-12 16:02 035 1 gusting 3 0.6
2019-Dec-12 15:51 076 0 gusting 3 0.6
2019-Dec-12 15:40 014 0 gusting 3 -0.0
2019-Dec-12 15:29 080 0 gusting 3 -0.0
2019-Dec-12 15:18 110 0 gusting 3 -0.0
2019-Dec-12 15:06 019 0 gusting 3 -0.6
2019-Dec-12 14:55 107 0 gusting 3 -0.6
2019-Dec-12 14:44 118 0 gusting 3 -0.6
2019-Dec-12 14:33 085 -1.1
2019-Dec-12 14:23 085 1 gusting 3 -1.1
2019-Dec-12 14:12 221 0 gusting 3 -1.1
2019-Dec-12 14:00 038 0 gusting 2 -2.2
2019-Dec-12 13:49 082 -3.3
2019-Dec-12 13:38 083 -3.9
2019-Dec-12 13:27 083 -4.4
2019-Dec-12 13:17 082 -4.4
2019-Dec-12 13:06 082 -4.4
2019-Dec-12 12:55 082 -5.0
2019-Dec-12 12:44 082 -4.4
2019-Dec-12 12:33 082 -4.4
2019-Dec-12 12:22 082 -4.4
2019-Dec-12 12:11 082 -4.4
2019-Dec-12 12:00 083 -4.4
2019-Dec-12 11:49 083 -4.4
2019-Dec-12 11:38 083 -4.4
2019-Dec-12 11:27 083 -3.9
2019-Dec-12 11:16 083 -3.9
2019-Dec-12 11:05 083 -3.9
2019-Dec-12 10:55 083 -3.9
2019-Dec-12 10:44 083 0 gusting 2 -3.9
2019-Dec-12 10:33 082 0 gusting 2 -3.3
2019-Dec-12 10:21 082 0 gusting 0 -3.3
2019-Dec-12 10:10 082 -3.9
2019-Dec-12 09:59 082 -3.3
2019-Dec-12 09:48 082 0 gusting 0 -3.3
2019-Dec-12 09:37 082 -3.3
2019-Dec-12 09:26 082 -3.3
2019-Dec-12 09:15 089 0 gusting 1 -2.8
2019-Dec-12 09:04 089 0 gusting 2 -2.8
2019-Dec-12 08:53 089 0 gusting 2 -2.8
2019-Dec-12 08:42 089 0 gusting 3 -2.2
2019-Dec-12 08:31 341 -2.8
2019-Dec-12 08:20 087 0 -2.2
2019-Dec-12 08:08 030 0 gusting 5 -3.3
2019-Dec-12 07:58 182 0 gusting 0 -2.8
2019-Dec-12 07:47 122 0 gusting 2 -3.3
2019-Dec-12 07:35 033 0 -2.8
2019-Dec-12 07:24 033 0 gusting 1 -2.8
2019-Dec-12 07:01 040 -2.8
2019-Dec-12 06:50 040 0 gusting 1 -2.2
2019-Dec-12 06:39 010 -2.8
2019-Dec-12 06:27 014 0 gusting 2 -1.7
2019-Dec-12 06:16 081 -2.8
2019-Dec-12 06:04 085 -2.2
2019-Dec-12 05:53 085 1 gusting 3 -2.2
2019-Dec-12 05:42 085 0 gusting 2 -2.2
2019-Dec-12 05:31 261 -1.7
2019-Dec-12 05:19 130 0 gusting 3 -1.7
2019-Dec-12 05:08 178 -1.7
2019-Dec-12 04:57 101 0 -1.1
2019-Dec-12 04:46 168 0 gusting 2 -0.6
2019-Dec-12 04:34 305 -1.7
2019-Dec-12 04:24 307 0 gusting 0 -1.1
2019-Dec-12 04:12 255 -1.1
2019-Dec-12 04:01 255 0 gusting 3 -0.6
2019-Dec-12 03:50 165 0 gusting 3 -0.0
2019-Dec-12 03:39 043 0 gusting 6 -0.0
2019-Dec-12 03:28 050 1 gusting 6 -0.0
2019-Dec-12 03:17 303 1 gusting 7 -0.6
2019-Dec-12 03:06 218 0 gusting 7 -1.1
2019-Dec-12 02:55 336 -1.1
2019-Dec-12 02:44 017 -0.6
2019-Dec-12 02:32 289 -0.0
2019-Dec-12 02:21 300 -0.0
2019-Dec-12 02:11 353 0 -0.0
2019-Dec-12 01:59 298 0 gusting 3 -0.0
2019-Dec-12 01:49 021 0 gusting 3 -0.0
2019-Dec-12 01:37 311 0 gusting 6 -0.0
2019-Dec-12 01:26 243 0 gusting 6 -0.6
2019-Dec-12 01:15 358 0 gusting 5 -0.0
2019-Dec-12 01:04 358 -0.6
2019-Dec-12 00:53 325 0 gusting 5 -0.0
2019-Dec-12 00:41 331 -0.6
2019-Dec-12 00:30 294 -1.1
2019-Dec-12 00:19 149 -1.1
2019-Dec-12 00:08 159 -1.1
2019-Dec-11 23:57 236 -1.1
2019-Dec-11 23:46 236 -1.1
2019-Dec-11 23:35 236 -1.1
2019-Dec-11 23:24 236 -0.6
2019-Dec-11 23:13 236 -0.6
2019-Dec-11 23:02 236 -0.0
2019-Dec-11 22:51 236 -0.0
2019-Dec-11 22:28 236 0.6
2019-Dec-11 22:17 236 1.7
2019-Dec-11 22:06 236 2.2
2019-Dec-11 21:55 236 2.8
2019-Dec-11 21:44 236 3.3
2019-Dec-11 21:33 236 3.3
2019-Dec-11 21:22 233 1 gusting 6 4.4
2019-Dec-11 21:11 238 2 gusting 13 4.4
2019-Dec-11 20:59 191 3 gusting 13 4.4
2019-Dec-11 20:48 238 1 gusting 12 5.0
2019-Dec-11 20:37 194 1 gusting 12 5.0
2019-Dec-11 20:26 227 2 gusting 9 4.4
2019-Dec-11 20:15 250 2 gusting 7 5.0
2019-Dec-11 20:04 241 3 gusting 7 4.4
2019-Dec-11 19:53 212 2 gusting 7 4.4
2019-Dec-11 19:42 245 2 gusting 12 4.4
2019-Dec-11 19:31 243 5 gusting 12 4.4
2019-Dec-11 19:19 223 5 gusting 13 3.9
2019-Dec-11 19:08 250 5 gusting 10 3.9
2019-Dec-11 18:57 233 1 gusting 7 3.9
2019-Dec-11 18:46 238 1 gusting 7 3.9
2019-Dec-11 18:35 006 1 gusting 12 3.9
2019-Dec-11 18:24 243 3 gusting 12 3.3
2019-Dec-11 18:12 213 2 gusting 12 3.3
2019-Dec-11 18:02 209 5 gusting 13 3.3
2019-Dec-11 17:50 233 2 gusting 15 3.3
2019-Dec-11 17:39 197 3 gusting 15 3.3
2019-Dec-11 17:28 219 3 gusting 13 2.8
2019-Dec-11 17:17 262 2 gusting 6 2.8
2019-Dec-11 17:06 274 3 gusting 12 2.8
2019-Dec-11 16:55 260 2 gusting 13 2.8
2019-Dec-11 16:44 307 2 gusting 9 2.8
2019-Dec-11 16:33 240 1 gusting 13 2.8
2019-Dec-11 16:23 226 2 gusting 13 2.2
2019-Dec-11 16:11 045 2 gusting 15 2.2
2019-Dec-11 16:01 209 5 gusting 15 1.7
2019-Dec-11 15:50 249 2 gusting 9 2.2
2019-Dec-11 15:39 295 2 gusting 13 1.7
2019-Dec-11 15:28 205 2 gusting 12 1.7
2019-Dec-11 15:16 247 2 gusting 12 1.7
2019-Dec-11 15:05 316 3 gusting 12 1.7
2019-Dec-11 14:54 326 2 gusting 9 1.7
2019-Dec-11 14:43 263 1 gusting 7 1.7
2019-Dec-11 14:32 236 1 gusting 7 1.1
2019-Dec-11 14:21 305 1 gusting 6 1.1
2019-Dec-11 14:10 010 0 gusting 5 0.6
2019-Dec-11 13:59 351 0 gusting 3 0.6
2019-Dec-11 13:48 191 -0.0
2019-Dec-11 13:36 221 -0.0
2019-Dec-11 13:25 236 -0.6
2019-Dec-11 13:14 236 -0.6
2019-Dec-11 13:02 236 -0.6
2019-Dec-11 12:51 236 -0.6
2019-Dec-11 12:40 236 -0.0
2019-Dec-11 12:28 236 -0.0
2019-Dec-11 12:17 236 -0.0
2019-Dec-11 12:06 236 0 gusting 1 -0.0
2019-Dec-11 11:54 236 0 gusting 1 -0.0
2019-Dec-11 11:43 236 -0.0
2019-Dec-11 11:32 236 0 gusting 2 -0.0
2019-Dec-11 11:21 248 0 gusting 2 -0.0
2019-Dec-11 11:09 232 0 gusting 2 -0.0
2019-Dec-11 10:58 239 -0.0
2019-Dec-11 10:47 239 0 gusting 3 -0.0
2019-Dec-11 10:36 183 0 gusting 1 -0.0
2019-Dec-11 10:25 237 1 gusting 10 -0.0
2019-Dec-11 10:14 250 1 gusting 10 -0.0
2019-Dec-11 10:04 205 0 gusting 6 -0.0
2019-Dec-11 09:52 341 0 gusting 5 -0.0
2019-Dec-11 09:41 039 1 gusting 6 -0.0
2019-Dec-11 09:30 266 1 gusting 6 -0.0
2019-Dec-11 09:20 290 0 gusting 7 -0.0
2019-Dec-11 09:08 312 1 gusting 7 -0.0
2019-Dec-11 08:57 322 1 gusting 6 -0.0
2019-Dec-11 08:46 011 0 gusting 6 -0.0
2019-Dec-11 08:35 347 0 gusting 6 -0.0
2019-Dec-11 08:24 055 0 gusting 10 -0.0
2019-Dec-11 08:13 307 1 gusting 12 -0.0
2019-Dec-11 08:02 118 2 gusting 12 -0.0
2019-Dec-11 07:51 292 1 gusting 10 0.6
2019-Dec-11 07:41 307 1 gusting 10 0.6
2019-Dec-11 07:29 272 0 gusting 6 1.1
2019-Dec-11 07:18 305 1.1
2019-Dec-11 07:07 327 1.1
2019-Dec-11 06:56 237 0 gusting 2 1.1
2019-Dec-11 06:45 324 1.1
2019-Dec-11 06:35 247 0 gusting 3 1.1
2019-Dec-11 06:24 109 0 gusting 6 1.1
2019-Dec-11 06:13 189 1 gusting 9 1.1
2019-Dec-11 06:02 277 1 gusting 9 1.1
2019-Dec-11 05:50 322 1 gusting 9 1.7
2019-Dec-11 05:39 285 1 gusting 9 1.7
2019-Dec-11 05:28 276 1 gusting 10 1.7
2019-Dec-11 05:17 204 2 gusting 10 2.2
2019-Dec-11 05:06 050 0 gusting 5 2.2
2019-Dec-11 04:55 274 1 gusting 5 2.2
2019-Dec-11 04:44 322 1 gusting 9 2.2
2019-Dec-11 04:33 278 2 gusting 9 2.8
2019-Dec-11 04:22 139 1 gusting 9 3.3
2019-Dec-11 04:11 287 1 gusting 9 3.3
2019-Dec-11 04:00 358 0 gusting 3 3.9
2019-Dec-11 03:49 008 0 gusting 5 3.9
2019-Dec-11 03:38 4.4
2019-Dec-11 03:27 269 3 gusting 9 4.4
2019-Dec-11 03:16 252 1 gusting 7 5.0
2019-Dec-11 03:05 323 2 gusting 12 5.0